LEMUR-2-KEVIN

Last updated on Wed Feb 14 2018 16:20:55 GMT+0000 (Coordinated Universal Time)

1 43046U 17071K 18044.86926866 .00004076 00000-0 11514-3 0 9993 2 43046 51.6401 281.6320 0004735 155.7726 204.3481 15.38683352 10647
UTC large
Height (km)
Speed (km/s)
/
Latitude / Longitude
Inclination (degrees)
Orbital Period (minutes)
Azimuth
Elevation
Range (km)
Doppler Factor

Next 0 passes for location: London (51.5072 / 0.1276)

Sorry there are no passes over London.
LEMUR-2-KEVIN